Weather History for Sioux Falls, SD

Change the Weather History Date:

Tuesday, January 14, 2014

  Actual Average Record
Temperature  
Mean Temperature 22 °F 16 °F  
Max Temperature 39 °F 26 °F 50 °F (1901)
Min Temperature 5 °F 7 °F -31 °F (1916)
Degree Days  
Heating Degree Days 43 49  
Month to date heating degree days 746 686  
Since 1 July heating degree days 4014 3819  
Cooling Degree Days 0 0  
Month to date cooling degree days 0 0  
Year to date cooling degree days 0 0  
Moisture  
Dew Point 16 °F    
Average Humidity 71    
Maximum Humidity 80    
Minimum Humidity 62    
Precipitation  
Precipitation T in 0.02 in 0.52 in (1952)
Month to date precipitation 0.06 0.26  
Year to date precipitation 0.06 0.26  
Snow  
Snow T in 0.30 in 3.50 in (1930)
Month to date snowfall 0.6 3.5  
Since 1 July snowfall 21.1 20.4  
Snow Depth 2.00 in    
Sea Level Pressure  
Sea Level Pressure 30.02 in    
Wind  
Wind Speed 23 mph (NW)    
Max Wind Speed 43 mph    
Max Gust Speed 56 mph    
Visibility 8 miles    
Events Rain , Snow    
T = Trace of Precipitation, MM = Missing Value Source: NWS Daily Summary

Daily Weather History Graph

Daily Weather History Graph

Search for Another Location

Airport:

Trip Planner

Search our weather history database for the weather conditions in past years. The results will help you decide how hot, cold, wet, or windy it might be!

Date:

Astronomy

Jan. 14, 2014 Rise Set
Actual Time 7:57 AM CST 5:14 PM CST
Civil Twilight 7:25 AM CST 5:46 PM CST
Nautical Twilight 6:50 AM CST 6:22 PM CST
Astronomical Twilight 6:15 AM CST 6:56 PM CST
Moon 4:22 PM CST (1/14) 6:32 AM CST (1/14)
Length of Visible Light 10h 21m
Length of Day
9h 17m
Waxing Gibbous, 98% of the Moon is Illuminated
Jan 14
Waxing Gibbous
Jan 15
Full
Jan 23
Last Quarter
Jan 30
New
Feb 6
First Quarter

Hourly Weather History & Observations

Time (CST) Temp. Windchill Dew Point Humidity Pressure Visibility Wind Dir Wind Speed Gust Speed Precip Events Conditions
12:56 AM 37.0 °F 25.4 °F 32.0 °F 82% 29.60 in 10.0 mi NW 25.3 mph 35.7 mph 0.00 in Rain Light Rain
1:29 AM 36.0 °F 23.5 °F 30.9 °F 82% 29.59 in 10.0 mi NW 27.6 mph 42.6 mph 0.00 in   Overcast
1:56 AM 36.0 °F 22.6 °F 28.9 °F 76% 29.65 in 10.0 mi NNW 32.2 mph 46.0 mph 0.00 in   Mostly Cloudy
2:09 AM 35.1 °F 22.5 °F 28.9 °F 78% 29.62 in 10.0 mi NNW 26.5 mph 41.4 mph N/A   Scattered Clouds
2:42 AM 35.1 °F 19.7 °F 28.0 °F 76% 29.67 in 10.0 mi NW 42.6 mph 56.4 mph N/A   Mostly Cloudy
2:56 AM 34.0 °F 19.7 °F 27.0 °F 75% 29.72 in 10.0 mi NW 33.4 mph 50.6 mph N/A   Mostly Cloudy
3:07 AM 34.0 °F 19.5 °F 26.1 °F 73% 29.69 in 10.0 mi NW 34.5 mph 52.9 mph N/A   Scattered Clouds
3:56 AM 32.0 °F 17.6 °F 25.0 °F 75% 29.78 in 10.0 mi NW 29.9 mph 47.2 mph N/A   Mostly Cloudy
4:56 AM 28.9 °F 14.8 °F 21.9 °F 75% 29.84 in 10.0 mi NW 24.2 mph 42.6 mph N/A   Overcast
5:48 AM 28.0 °F 14.3 °F 19.9 °F 72% 29.83 in 10.0 mi NW 21.9 mph 34.5 mph N/A   Overcast
5:56 AM 28.0 °F 13.3 °F 19.9 °F 72% 29.89 in 10.0 mi NW 25.3 mph 32.2 mph N/A   Overcast
6:51 AM 24.8 °F 7.1 °F 15.8 °F 69% 29.89 in 10.0 mi NW 33.4 mph 44.9 mph N/A   Overcast
6:56 AM 24.1 °F 7.4 °F 15.1 °F 69% 29.95 in 10.0 mi NW 27.6 mph 42.6 mph N/A   Overcast
7:46 AM 23.0 °F 6.0 °F 12.9 °F 65% 29.92 in 10.0 mi NW 27.6 mph 36.8 mph N/A   Mostly Cloudy
7:56 AM 23.0 °F 6.6 °F 12.9 °F 65% 29.98 in 10.0 mi NW 25.3 mph 36.8 mph N/A   Overcast
8:56 AM 21.9 °F 3.9 °F 10.9 °F 63% 30.02 in 9.0 mi NNW 29.9 mph 40.3 mph 0.00 in   Overcast
9:52 AM 21.2 °F 4.9 °F 15.8 °F 80% 29.99 in 2.5 mi NW 23.0 mph 28.8 mph 0.00 in Snow Light Snow
9:56 AM 21.9 °F 5.5 °F 16.0 °F 78% 30.05 in 2.5 mi NW 24.2 mph 31.1 mph 0.00 in Snow Light Snow
10:00 AM 21.0 °F 5.4 °F 17.1 °F 85% 30.00 in 1.5 mi NW 20.7 mph 31.1 mph 0.00 in Snow Light Snow
10:21 AM 21.9 °F 5.8 °F 17.1 °F 82% 30.01 in 2.0 mi NW 23.0 mph 31.1 mph 0.00 in Snow Light Snow
10:28 AM 21.9 °F 4.5 °F 16.0 °F 78% 30.02 in 3.0 mi NW 27.6 mph 34.5 mph 0.00 in Snow Light Snow
10:46 AM 21.9 °F 5.1 °F 15.1 °F 75% 30.02 in 9.0 mi NW 25.3 mph 35.7 mph 0.00 in Snow Light Snow
10:56 AM 23.0 °F 5.1 °F 12.9 °F 65% 30.07 in 9.0 mi NW 31.1 mph 41.4 mph 0.00 in   Overcast
11:56 AM 21.9 °F 4.8 °F 12.9 °F 68% 30.10 in 10.0 mi NW 26.5 mph 35.7 mph N/A   Overcast
12:56 PM 21.9 °F 4.2 °F 12.0 °F 66% 30.11 in 10.0 mi NW 28.8 mph 38.0 mph 0.00 in   Overcast
1:29 PM 21.9 °F 6.5 °F 14.0 °F 72% 30.07 in 2.0 mi NW 20.7 mph - 0.00 in Snow Light Snow
1:32 PM 21.9 °F 5.5 °F 14.0 °F 72% 30.07 in 1.0 mi NW 24.2 mph 28.8 mph 0.00 in Snow Light Snow
1:36 PM 21.9 °F 6.2 °F 14.0 °F 72% 30.07 in 2.0 mi NNW 21.9 mph 33.4 mph 0.00 in Snow Light Snow
1:44 PM 21.9 °F 5.1 °F 14.0 °F 72% 30.07 in 4.0 mi NNW 25.3 mph 32.2 mph 0.00 in Snow Light Snow
1:56 PM 21.9 °F 4.5 °F 12.9 °F 68% 30.13 in 9.0 mi NNW 27.6 mph 33.4 mph 0.00 in Snow Light Snow
2:56 PM 21.9 °F 5.5 °F 14.0 °F 72% 30.16 in 10.0 mi NW 24.2 mph 33.4 mph 0.00 in   Mostly Cloudy
3:06 PM 21.9 °F 5.1 °F 14.0 °F 72% 30.11 in 4.0 mi NW 25.3 mph 35.7 mph 0.00 in Snow Light Snow
3:07 PM 21.9 °F 5.8 °F 12.9 °F 68% 30.11 in 9.0 mi NW 23.0 mph 35.7 mph 0.00 in Snow Light Snow
3:56 PM 21.9 °F 5.1 °F 12.9 °F 68% 30.19 in 10.0 mi NNW 25.3 mph 31.1 mph 0.00 in   Mostly Cloudy
4:56 PM 19.9 °F 4.8 °F 12.0 °F 71% 30.22 in 10.0 mi NW 18.4 mph 26.5 mph N/A   Mostly Cloudy
5:56 PM 18.0 °F 1.7 °F 10.9 °F 74% 30.24 in 10.0 mi NW 19.6 mph - N/A   Mostly Cloudy
6:56 PM 18.0 °F 2.6 °F 10.9 °F 74% 30.26 in 9.0 mi NW 17.3 mph - 0.00 in Snow Light Snow
7:02 PM 18.0 °F 1.7 °F 10.9 °F 74% 30.19 in 9.0 mi NW 19.6 mph 24.2 mph 0.00 in Snow Light Snow
7:24 PM 17.1 °F 2.5 °F 10.0 °F 74% 30.19 in 9.0 mi NW 15.0 mph - 0.00 in Snow Light Snow
7:56 PM 15.1 °F 0.5 °F 8.1 °F 74% 30.27 in 10.0 mi NW 13.8 mph - 0.00 in   Mostly Cloudy
8:56 PM 12.9 °F -0.2 °F 7.0 °F 77% 30.27 in 10.0 mi NW 10.4 mph - N/A   Partly Cloudy
9:56 PM 12.0 °F -2.0 °F 5.0 °F 73% 30.29 in 10.0 mi NNW 11.5 mph - N/A   Partly Cloudy
10:56 PM 9.0 °F -3.2 °F 3.9 °F 80% 30.28 in 10.0 mi WNW 8.1 mph - 0.00 in   Partly Cloudy
11:56 PM 6.1 °F -4.3 °F 1.9 °F 83% 30.29 in 10.0 mi WNW 5.8 mph - N/A   Clear